Weather History for KHHW - January, 2013

Change the Weather History Date:

Thursday, January 3, 2013

  Actual Average Record
Temperature  
Mean Temperature 36 °F -  
Max Temperature 48 °F 51 °F 49 °F (2014)
Min Temperature 24 °F 31 °F 24 °F (2013)
Degree Days  
Heating Degree Days 29    
Moisture  
Dew Point 25 °F    
Average Humidity 69    
Maximum Humidity 92    
Minimum Humidity 39    
Precipitation  
Precipitation 0.00 in - - ()
Sea Level Pressure  
Sea Level Pressure 30.40 in    
Wind  
Wind Speed 5 mph (NNW)    
Max Wind Speed 9 mph    
Max Gust Speed 18 mph    
Visibility 10 miles    
Events      
Averages and records for this station are not official NWS values.
T = Trace of Precipitation, MM = Missing Value Source: NWS Daily Summary

Daily Weather History Graph

Daily Weather History Graph

Search for Another Location

Airport or City:

Trip Planner

Search our weather history database for the weather conditions in past years. The results will help you decide how hot, cold, wet, or windy it might be!

Date:

Astronomy

Jan. 03, 2013 Rise Set
Actual Time 7:28 AM CST 5:25 PM CST
Civil Twilight 7:00 AM CST 5:53 PM CST
Nautical Twilight 6:29 AM CST 6:24 PM CST
Astronomical Twilight 5:58 AM CST 6:54 PM CST
Moon 11:42 PM CST (1/3) 10:58 AM CST (1/3)
Length of Visible Light 10h 52m
Length of Day
9h 57m
Waning Gibbous, 65% of the Moon is Illuminated
Jan 3
Waning Gibbous
Jan 4
Last Quarter
Jan 11
New
Jan 18
First Quarter
Jan 26
Full

Hourly Weather History & Observations

Time (CST) Temp. Windchill Dew Point Humidity Pressure Visibility Wind Dir Wind Speed Gust Speed Precip Events Conditions
12:15 AM 30.2 °F 25.4 °F 25.7 °F 83% 30.31 in 10.0 mi West 4.6 mph - N/A   Clear
12:35 AM 29.3 °F 23.2 °F 25.3 °F 85% 30.31 in 10.0 mi West 5.8 mph - N/A   Clear
12:55 AM 29.1 °F 23.0 °F 25.3 °F 86% 30.30 in 10.0 mi WNW 5.8 mph - N/A   Clear
1:15 AM 28.4 °F 21.2 °F 25.0 °F 87% 30.30 in 10.0 mi WNW 6.9 mph - N/A   Clear
1:35 AM 28.4 °F 23.3 °F 25.0 °F 87% 30.30 in 10.0 mi NW 4.6 mph - N/A   Clear
1:55 AM 28.2 °F 22.0 °F 25.2 °F 88% 30.31 in 10.0 mi WNW 5.8 mph - N/A   Clear
2:15 AM 28.4 °F 21.2 °F 25.3 °F 88% 30.31 in 10.0 mi WNW 6.9 mph - N/A   Clear
2:35 AM 28.6 °F 21.5 °F 25.5 °F 88% 30.31 in 10.0 mi NW 6.9 mph - N/A   Clear
2:55 AM 29.3 °F 22.3 °F 25.7 °F 86% 30.33 in 10.0 mi NW 6.9 mph - N/A   Clear
3:15 AM 28.4 °F 21.2 °F 25.0 °F 87% 30.33 in 10.0 mi WNW 6.9 mph - N/A   Clear
3:35 AM 27.5 °F 21.1 °F 24.6 °F 89% 30.34 in 10.0 mi WNW 5.8 mph - N/A   Clear
3:55 AM 27.5 °F 20.2 °F 24.8 °F 90% 30.34 in 10.0 mi WNW 6.9 mph - N/A   Clear
4:15 AM 27.0 °F 20.5 °F 24.4 °F 90% 30.34 in 10.0 mi WNW 5.8 mph - N/A   Clear
4:35 AM 27.0 °F 20.5 °F 24.3 °F 90% 30.34 in 10.0 mi NW 5.8 mph - N/A   Clear
4:55 AM 27.0 °F 20.5 °F 23.9 °F 88% 30.35 in 10.0 mi WNW 5.8 mph - N/A   Clear
5:15 AM 27.0 °F 19.5 °F 24.3 °F 90% 30.35 in 10.0 mi NW 6.9 mph - N/A   Clear
5:35 AM 27.1 °F 20.7 °F 24.4 °F 90% 30.35 in 10.0 mi NNW 5.8 mph - N/A   Clear
5:55 AM 26.2 °F 18.6 °F 23.7 °F 90% 30.36 in 10.0 mi NW 6.9 mph - N/A   Clear
6:15 AM 26.4 °F 20.9 °F 23.7 °F 90% 30.37 in 10.0 mi NW 4.6 mph - N/A   Clear
6:35 AM 25.7 °F 19.0 °F 23.2 °F 90% 30.38 in 10.0 mi WNW 5.8 mph - N/A   Clear
6:55 AM 25.5 °F 18.7 °F 23.0 °F 90% 30.39 in 10.0 mi WNW 5.8 mph - N/A   Clear
7:15 AM 25.0 °F 18.1 °F 23.0 °F 92% 30.40 in 10.0 mi WNW 5.8 mph - N/A   Clear
7:35 AM 24.6 °F 17.7 °F 22.6 °F 92% 30.41 in 7.0 mi WNW 5.8 mph - N/A   Clear
7:55 AM 25.2 °F 18.3 °F 23.0 °F 91% 30.41 in 7.0 mi WNW 5.8 mph - N/A   Clear
8:15 AM 26.8 °F 19.3 °F 24.4 °F 91% 30.42 in 7.0 mi NW 6.9 mph - N/A   Clear
8:35 AM 28.8 °F 22.6 °F 25.5 °F 88% 30.43 in 10.0 mi NW 5.8 mph - N/A   Clear
8:55 AM 30.4 °F 25.6 °F 26.6 °F 86% 30.44 in 10.0 mi NW 4.6 mph - N/A   Clear
9:15 AM 32.0 °F 28.7 °F 28.2 °F 86% 30.45 in 10.0 mi NNW 3.5 mph - N/A   Clear
9:35 AM 33.3 °F 28.9 °F 28.2 °F 82% 30.46 in 10.0 mi NNW 4.6 mph - N/A   Clear
9:55 AM 35.1 °F 30.1 °F 28.9 °F 78% 30.46 in 10.0 mi NNW 5.8 mph - N/A   Clear
10:15 AM 36.5 °F 33.9 °F 29.1 °F 75% 30.47 in 10.0 mi North 3.5 mph - N/A   Clear
10:35 AM 37.8 °F 35.3 °F 28.6 °F 69% 30.46 in 10.0 mi NNE 3.5 mph - N/A   Clear
10:55 AM 39.0 °F - 28.0 °F 65% 30.46 in 10.0 mi Calm Calm - N/A   Clear
11:15 AM 41.0 °F 38.0 °F 27.3 °F 58% 30.45 in 10.0 mi North 4.6 mph - N/A   Clear
11:35 AM 41.9 °F 38.2 °F 26.1 °F 53% 30.44 in 10.0 mi NE 5.8 mph - N/A   Clear
11:55 AM 42.4 °F 39.6 °F 26.2 °F 53% 30.43 in 10.0 mi North 4.6 mph - N/A   Clear
12:15 PM 43.3 °F 40.7 °F 26.6 °F 52% 30.41 in 10.0 mi NE 4.6 mph - N/A   Clear
12:35 PM 45.0 °F 40.1 °F 25.5 °F 47% 30.41 in 10.0 mi North 9.2 mph 16.1 mph N/A   Clear
12:55 PM 45.1 °F 40.8 °F 25.5 °F 46% 30.41 in 10.0 mi North 8.1 mph - N/A   Clear
1:15 PM 45.9 °F 41.7 °F 26.4 °F 47% 30.38 in 10.0 mi North 8.1 mph 18.4 mph N/A   Clear
1:35 PM 46.2 °F 42.7 °F 26.4 °F 46% 30.38 in 10.0 mi North 6.9 mph - N/A   Clear
1:55 PM 46.6 °F - 26.1 °F 45% 30.37 in 10.0 mi North 8.1 mph - N/A   Clear
2:15 PM 45.9 °F 42.9 °F 25.7 °F 45% 30.37 in 10.0 mi North 5.8 mph - N/A   Clear
2:35 PM 48.2 °F - 25.2 °F 41% 30.37 in 10.0 mi NNE 8.1 mph - N/A   Clear
2:55 PM 48.2 °F - 24.8 °F 40% 30.38 in 10.0 mi NW 6.9 mph - N/A   Clear
3:15 PM 46.8 °F - 24.4 °F 42% 30.38 in 10.0 mi NNW 9.2 mph - N/A   Clear
3:55 PM 47.8 °F - 23.5 °F 39% 30.40 in 10.0 mi North 6.9 mph - N/A   Clear
4:15 PM 47.3 °F - 24.3 °F 40% 30.40 in 10.0 mi North 5.8 mph - N/A   Clear
4:35 PM 46.8 °F - 23.9 °F 41% 30.40 in 10.0 mi Calm Calm - N/A   Clear
4:55 PM 46.2 °F 43.3 °F 24.4 °F 42% 30.40 in 10.0 mi NW 5.8 mph - N/A   Clear
5:15 PM 44.1 °F 42.5 °F 23.9 °F 45% 30.40 in 10.0 mi North 3.5 mph - N/A   Clear
5:35 PM 41.9 °F 38.2 °F 24.6 °F 50% 30.41 in 10.0 mi NW 5.8 mph - N/A   Clear
5:55 PM 40.5 °F 37.3 °F 25.2 °F 54% 30.42 in 10.0 mi NW 4.6 mph - N/A   Clear
6:15 PM 40.1 °F 38.0 °F 25.2 °F 55% 30.42 in 10.0 mi NNW 3.5 mph - N/A   Clear
6:35 PM 39.4 °F 37.2 °F 24.8 °F 56% 30.42 in 10.0 mi NNW 3.5 mph - N/A   Clear
6:55 PM 39.4 °F 37.2 °F 25.0 °F 56% 30.43 in 10.0 mi NNW 3.5 mph - N/A   Clear
7:15 PM 39.2 °F - 25.2 °F 57% 30.43 in 10.0 mi Calm Calm - N/A   Clear
7:35 PM 39.2 °F 37.0 °F 24.8 °F 56% 30.43 in 10.0 mi North 3.5 mph - N/A   Clear
7:55 PM 38.5 °F 36.1 °F 24.8 °F 58% 30.44 in 10.0 mi North 3.5 mph - N/A   Clear
8:15 PM 38.5 °F - 24.8 °F 58% 30.43 in 10.0 mi Calm Calm - N/A   Clear
8:35 PM 38.3 °F - 24.8 °F 58% 30.44 in 10.0 mi Calm Calm - N/A   Clear
8:55 PM 37.8 °F - 24.6 °F 59% 30.44 in 10.0 mi Calm Calm - N/A   Clear
9:15 PM 38.8 °F - 24.4 °F 56% 30.43 in 10.0 mi Calm Calm - N/A   Clear
9:35 PM 35.8 °F - 24.8 °F 64% 30.44 in 10.0 mi Calm Calm - N/A   Clear
9:55 PM 36.5 °F 33.9 °F 24.4 °F 62% 30.44 in 10.0 mi NNW 3.5 mph - N/A   Clear
10:15 PM 37.0 °F - 24.3 °F 60% 30.44 in 10.0 mi Calm Calm - N/A   Clear
10:35 PM 36.0 °F 33.3 °F 24.6 °F 63% 30.45 in 10.0 mi NW 3.5 mph - N/A   Mostly Cloudy
10:55 PM 34.5 °F 29.4 °F 25.7 °F 70% 30.46 in 10.0 mi WNW 5.8 mph - N/A   Overcast
11:15 PM 35.1 °F 32.2 °F 25.7 °F 69% 30.44 in 10.0 mi NW 3.5 mph - N/A   Overcast
11:35 PM 33.8 °F 29.6 °F 27.9 °F 79% 30.45 in 10.0 mi NW 4.6 mph - N/A   Overcast
11:55 PM 34.2 °F 29.0 °F 27.3 °F 76% 30.44 in 10.0 mi NNW 5.8 mph - N/A   Overcast